Regional Weather Roundup
Issued by NWS

Home | Current Version | Previous Version | Graphics & Text | Print | Product List | Glossary On
Versions: 1 2 3 4 5 6 7 8 9 10 11 12 13 14 15 16 17 18 19 20 21 22 23 24 25 26 27 28 29 30 31 32 33 34 35 36 37 38 39 40 41 42 43 44 45 46 47 48 49 50
000
ASUS43 KFSD 300202
RWRSD

WEATHER ROUNDUP FOR SOUTH DAKOTA
NATIONAL WEATHER SERVICE SIOUX FALLS SD
900 PM CDT SAT APR 29 2017

NOTE: "FAIR" INDICATES FEW OR NO CLOUDS BELOW 12,000 FEET WITH NO
SIGNIFICANT WEATHER AND/OR OBSTRUCTIONS TO VISIBILITY.


SDZ001>005-009-010-012>017-300300-
NORTHWEST AND NORTH CENTRAL SOUTH DAKOTA

CITY           SKY/WX    TMP DP  RH WIND       PRES   REMARKS
BUFFALO          N/A     50  22  33 E9        30.09F
FAITH            N/A     50  22  33 E9        30.17R
MOBRIDGE       CLOUDY    52  21  29 E10       30.15S
$$

SDZ012>016-024>037-041>051-057-063-072>074-300300-
SOUTHWEST AND SOUTH CENTRAL SOUTH DAKOTA

CITY           SKY/WX    TMP DP  RH WIND       PRES   REMARKS
RAPID CTY ARPT CLEAR     42  23  46 NE7       30.17R
PIERRE         CLOUDY    48  22  35 E7        30.16R
CUSTER         CLEAR     37  15  40 E3        30.17R
ELLSWORTH AFB  CLEAR     50  17  27 E5        30.17R
PHILIP         CLOUDY    46  28  49 NE8       30.17R
PINE RIDGE     CLOUDY    45  25  45 NE3       30.18R
SPEARFISH      FAIR      43  27  52 S6        30.18R
WINNER         FAIR      48  26  42 NE6       30.16R
$$

SDZ004>011-016>023-039-040-300300-
NORTHEAST SOUTH DAKOTA

CITY           SKY/WX    TMP DP  RH WIND       PRES   REMARKS
ABERDEEN       PTCLDY    46  22  38 E7        30.20S
WATERTOWN      MOCLDY    48  23  37 NE9       30.17R
BROOKINGS      CLOUDY    48  24  39 NE8       30.17R
SISSETON         N/A     49  26  41 NE5       30.19R
$$

SDZ017-020-022-023-036>040-048>070-300300-
SOUTHEAST SOUTH DAKOTA

CITY           SKY/WX    TMP DP  RH WIND       PRES   REMARKS
SIOUX FALLS    CLOUDY    49  27  42 NE10      30.15R
HURON          CLOUDY    49  26  41 E6        30.19R
CHAMBERLAIN    MOCLDY    51  25  35 N7        30.16S
MITCHELL       CLOUDY    50  26  39 NE8       30.18R
YANKTON        CLOUDY    48  27  43 NE12      30.12R
$$

ABBREVIATIONS USED IN REMARKS
   TC - TEMPERATURE IN CELSIUS
  WCI - WIND CHILL INDEX
   HX - HEAT INDEX
  VSB - VISIBILITY





USA.gov is the U.S. government's official web portal to all federal, state and local government web resources and services.